Flag for Madagascar Weather past 2 weeks in Antsirabe, Madagascar

Now
66 °F

Passing clouds.


Feels Like: 66 °F
Forecast: 54 / 76 °F
Wind: 2 mph from Northeast

Location: Antananarivo / Ivato

Current Time: Apr 1, 2015 at 3:56:41 AM

Latest Report: Apr 1, 2015 at 3:00 AM


Visibility: N/A

Pressure: 30.07 "Hg

Humidity: 100%

Dew point: 66 °F

Location of AntsirabeLocation

Historic Weather in Antsirabe — Graph

°F

Antsirabe temperature yesterday

Maximum temperature yesterday: 86 °F (at 2:00 PM)
Minimum temperature yesterday: 63 °F (at 5:00 AM)
Average temperature yesterday: 74 °F

Past Weeks' High & Low Weather Summary

 TemperatureHumidityPressure
High86 °F (Mar 18, 2:30 PM)100% (Mar 17, 3:00 AM)30.27 "Hg (Mar 17, 3:00 AM)
Low57 °F (Mar 17, 5:00 AM)43% (Mar 19, 2:30 PM)30.04 "Hg (Mar 31, 3:00 PM)
Average71 °F86%30.18 "Hg
* Reported Mar 17 3:00 AM — Apr 1 3:00 AM, Antsirabe, Weather by CustomWeather, © 2015

Note: Actual official high and low records may vary slightly from our data, if they occured in-between our weather recording intervals... More about our weather records

Advertising

Antsirabe weather history for previous 24 hours

 ConditionsComfort  
Time TempWeatherWind HumidityBarometerVisibility
3:00 AM
Wed, Apr 1
66 °FPassing clouds.2 mph100%30.07 "HgN/A
2:30 AM66 °FPassing clouds.7 mph100%30.07 "HgN/A
2:00 AM66 °FPassing clouds.7 mph100%30.07 "HgN/A
1:30 AM66 °FPassing clouds.7 mph100%30.09 "HgN/A
1:00 AM66 °FPassing clouds.5 mph100%30.09 "HgN/A
12:00 AM68 °FPartly cloudy.5 mph100%30.12 "HgN/A
11:30 PM
Tue, Mar 31
68 °FPartly cloudy.3 mph100%30.12 "HgN/A
11:00 PM68 °FThundershowers. Passing clouds.3 mph100%30.15 "HgN/A
10:30 PM68 °FThundershowers. Passing clouds.7 mph100%30.15 "HgN/A
10:00 PM68 °FThundershowers. Passing clouds.8 mph100%30.15 "HgN/A
9:30 PM70 °FThundershowers. Passing clouds.7 mph100%30.15 "HgN/A
9:00 PM70 °FThundershowers. Passing clouds.12 mph100%30.15 "HgN/A
8:30 PM70 °FThundershowers. Passing clouds.10 mph94%30.15 "HgN/A
8:00 PM72 °FThundershowers. Passing clouds.9 mph94%30.15 "HgN/A
7:30 PM72 °FThundershowers. Passing clouds.7 mph88%30.15 "HgN/A
7:00 PM73 °FThundershowers. Passing clouds.10 mph74%30.12 "HgN/A
6:30 PM73 °FPassing clouds.5 mph74%30.09 "HgN/A
6:00 PM75 °FPassing clouds.7 mph74%30.09 "HgN/A
5:30 PM77 °FScattered clouds.7 mph69%30.07 "HgN/A
5:00 PM81 °FScattered clouds.12 mph62%30.07 "HgN/A
4:30 PM84 °FScattered clouds.1 mph51%30.07 "HgN/A
4:00 PM84 °FScattered clouds.2 mph48%30.07 "HgN/A
3:30 PM84 °FScattered clouds.2 mph51%30.07 "HgN/A
3:00 PM86 °FPassing clouds.5 mph52%30.04 "HgN/A
2:30 PM86 °FPassing clouds.1 mph52%30.07 "HgN/A
2:00 PM86 °FPassing clouds.2 mph49%30.07 "HgN/A
1:30 PM84 °FPassing clouds.2 mph51%30.09 "HgN/A
1:00 PM84 °FPassing clouds.2 mph51%30.09 "HgN/A
12:30 PM84 °FPassing clouds.1 mph55%30.09 "HgN/A
12:00 PM82 °FPassing clouds.3 mph62%30.12 "HgN/A
11:30 AM82 °FPassing clouds.3 mph58%30.12 "HgN/A
11:00 AM81 °FPassing clouds.3 mph62%30.15 "HgN/A
10:30 AM79 °FPassing clouds.5 mph65%30.15 "HgN/A
10:00 AM77 °FPassing clouds.5 mph65%30.15 "HgN/A
9:30 AM77 °FPassing clouds.5 mph79%30.18 "HgN/A
9:00 AM73 °FPassing clouds.5 mph83%30.18 "HgN/A
8:30 AM75 °FPassing clouds.5 mph83%30.18 "HgN/A
8:00 AM73 °FPassing clouds.2 mph94%30.15 "HgN/A
7:30 AM70 °FScattered clouds.1 mph94%30.15 "HgN/A
7:00 AM68 °FScattered clouds.1 mph100%30.15 "HgN/A
6:30 AM63 °FScattered clouds.1 mph100%30.12 "HgN/A
6:00 AM63 °FScattered clouds.2 mph100%30.12 "HgN/A
5:30 AM63 °FPassing clouds.5 mph100%30.12 "HgN/A
5:00 AM63 °FPassing clouds.No wind100%30.12 "HgN/A
4:00 AM64 °FPassing clouds.1 mph100%30.09 "HgN/A
3:00 AM64 °FPassing clouds.3 mph100%30.09 "HgN/A
Weather by CustomWeather, © 2015

See weather overviewHow to use our weather pages